Hammond, LA

11:42 PM CDT on March 28, 2017 (GMT -0500)
Hammond Municipal

Weather History for KHDC - February, 2013

Change the Weather History Date:

Saturday, February 23, 2013

  Actual Average (KMSY) Record (KMSY)
Temperature  
Mean Temperature 58 °F -  
Max Temperature 62 °F 65 °F 81 °F (1962)
Min Temperature 53 °F 46 °F 26 °F (1964)
Degree Days  
Heating Degree Days 8    
Growing Degree Days 8 (Base 50)    
Moisture  
Dew Point 51 °F    
Average Humidity 80    
Maximum Humidity 88    
Minimum Humidity 68    
Precipitation  
Precipitation 0.38 in - - ()
Sea Level Pressure  
Sea Level Pressure 29.94 in    
Wind  
Wind Speed 5 mph (North)    
Max Wind Speed 10 mph    
Max Gust Speed -    
Visibility 10 miles    
Events Rain , Thunderstorm    
Averages and records for this station are not official NWS values.
T = Trace of Precipitation, MM = Missing Value Source: NWS Daily Summary

Daily Weather History Graph

Daily Weather History Graph

Search for Another Location

Airport or City:

Trip Planner

Search our weather history database for the weather conditions in past years. The results will help you decide how hot, cold, wet, or windy it might be!

Date:

Astronomy

Feb. 23, 2013 Rise Set
Actual Time 6:34 AM CST 5:56 PM CST
Civil Twilight 6:09 AM CST 6:20 PM CST
Nautical Twilight 5:41 AM CST 6:48 PM CST
Astronomical Twilight 5:13 AM CST 7:16 PM CST
Moon 4:10 PM CST (2/23) 4:51 AM CST (2/23)
Length of Visible Light 12h 10m
Length of Day
11h 22m
Waxing Gibbous, 95% of the Moon is Illuminated
Feb 23
Waxing Gibbous
Feb 25
Full
Mar 4
Last Quarter
Mar 11
New
Mar 19
First Quarter

Hourly Weather History & Observations

Time (CST) Temp. Dew Point Humidity Pressure Visibility Wind Dir Wind Speed Gust Speed Precip Events Conditions
12:15 AM 55.4 °F 51.8 °F 88% 29.92 in 10.0 mi NNE 5.8 mph - 0.01 in Rain , Thunderstorm Light Thunderstorms and Rain
12:35 AM 55.4 °F 51.8 °F 88% 29.95 in 4.0 mi North 3.5 mph - 0.03 in Rain , Thunderstorm Heavy Thunderstorms and Rain
12:55 AM 55.4 °F 51.8 °F 88% 29.94 in 10.0 mi North 5.8 mph - 0.04 in Rain , Thunderstorm Light Thunderstorms and Rain
1:15 AM 55.4 °F 51.8 °F 88% 29.93 in 10.0 mi North 8.1 mph - 0.02 in Thunderstorm Unknown
1:35 AM 55.4 °F 51.8 °F 88% 29.94 in 10.0 mi North 5.8 mph - 0.03 in Thunderstorm Overcast
1:55 AM 55.4 °F 51.8 °F 88% 29.92 in 10.0 mi North 8.1 mph - 0.04 in Rain Light Rain
2:15 AM 55.4 °F 51.8 °F 88% 29.92 in 10.0 mi North 4.6 mph - 0.01 in   Drizzle
2:35 AM 55.4 °F 51.8 °F 88% 29.92 in 10.0 mi North 5.8 mph - 0.03 in   Overcast
2:55 AM 55.4 °F 51.8 °F 88% 29.92 in 10.0 mi North 3.5 mph - 0.04 in   Overcast
3:15 AM 55.4 °F 51.8 °F 88% 29.93 in 10.0 mi North 4.6 mph - 0.01 in   Overcast
3:35 AM 55.4 °F 51.8 °F 88% 29.92 in 10.0 mi North 8.1 mph - 0.02 in   Overcast
3:55 AM 55.4 °F 51.8 °F 88% 29.93 in 10.0 mi Calm Calm - 0.03 in   Overcast
4:15 AM 55.4 °F 51.8 °F 88% 29.94 in 10.0 mi North 6.9 mph - 0.01 in   Overcast
4:35 AM 55.4 °F 51.8 °F 88% 29.94 in 10.0 mi North 4.6 mph - 0.02 in   Overcast
4:55 AM 55.4 °F 51.8 °F 88% 29.94 in 10.0 mi North 5.8 mph - 0.03 in   Overcast
5:15 AM 55.4 °F 51.8 °F 88% 29.93 in 10.0 mi North 5.8 mph - 0.01 in   Overcast
5:35 AM 55.4 °F 50.0 °F 82% 29.93 in 10.0 mi NNE 4.6 mph - 0.02 in   Overcast
5:55 AM 53.6 °F 50.0 °F 88% 29.93 in 10.0 mi North 6.9 mph - 0.03 in   Overcast
6:15 AM 53.6 °F 50.0 °F 88% 29.92 in 10.0 mi NNE 6.9 mph - 0.01 in   Mostly Cloudy
6:35 AM 53.6 °F 50.0 °F 88% 29.92 in 10.0 mi NE 8.1 mph - 0.02 in   Scattered Clouds
6:55 AM 53.6 °F 50.0 °F 88% 29.93 in 10.0 mi NNE 5.8 mph - 0.02 in   Mostly Cloudy
7:15 AM 53.6 °F 50.0 °F 88% 29.95 in 10.0 mi NNE 3.5 mph - 0.01 in   Overcast
7:35 AM 55.4 °F 50.0 °F 82% 29.96 in 10.0 mi North 4.6 mph - 0.02 in   Overcast
7:55 AM 55.4 °F 50.0 °F 82% 29.97 in 10.0 mi NNE 5.8 mph - 0.03 in   Overcast
8:15 AM 55.4 °F 50.0 °F 82% 29.97 in 10.0 mi NNE 4.6 mph - 0.01 in   Overcast
8:35 AM 55.4 °F 50.0 °F 82% 29.97 in 10.0 mi North 4.6 mph - 0.01 in   Mostly Cloudy
8:55 AM 57.2 °F 50.0 °F 77% 29.98 in 10.0 mi North 4.6 mph - 0.02 in   Overcast
9:15 AM 57.2 °F 51.8 °F 82% 29.97 in 10.0 mi North 5.8 mph - 0.01 in   Overcast
9:35 AM 57.2 °F 50.0 °F 77% 29.96 in 10.0 mi NNE 5.8 mph - 0.01 in   Scattered Clouds
9:55 AM 57.2 °F 50.0 °F 77% 29.96 in 10.0 mi NNE 8.1 mph - 0.02 in   Mostly Cloudy
10:15 AM 57.2 °F 50.0 °F 77% 29.96 in 10.0 mi NE 4.6 mph - 0.01 in   Scattered Clouds
10:35 AM 57.2 °F 50.0 °F 77% 29.97 in 10.0 mi North 5.8 mph - 0.01 in   Mostly Cloudy
10:55 AM 57.2 °F 50.0 °F 77% 29.96 in 10.0 mi North 3.5 mph - 0.02 in   Overcast
11:15 AM 57.2 °F 50.0 °F 77% 29.96 in 10.0 mi Calm Calm - 0.01 in   Mostly Cloudy
11:35 AM 59.0 °F 51.8 °F 77% 29.95 in 10.0 mi North 5.8 mph - 0.01 in   Scattered Clouds
12:15 PM 59.0 °F 51.8 °F 77% 29.94 in 10.0 mi North 6.9 mph - 0.01 in   Clear
12:35 PM 59.0 °F 51.8 °F 77% 29.92 in 10.0 mi ENE 4.6 mph - 0.01 in   Clear
12:55 PM 60.8 °F 51.8 °F 72% 29.92 in 10.0 mi North 4.6 mph - 0.02 in   Mostly Cloudy
1:15 PM 60.8 °F 51.8 °F 72% 29.92 in 10.0 mi Calm Calm - N/A   Overcast
1:35 PM 62.6 °F 51.8 °F 68% 29.90 in 10.0 mi North 5.8 mph - 0.01 in   Mostly Cloudy
1:55 PM 60.8 °F 51.8 °F 72% 29.90 in 10.0 mi Calm Calm - 0.01 in   Overcast
2:15 PM 62.6 °F 51.8 °F 68% 29.89 in 10.0 mi Calm Calm - N/A   Overcast
2:35 PM 62.6 °F 51.8 °F 68% 29.87 in 10.0 mi NNW 6.9 mph - 0.01 in   Scattered Clouds
2:55 PM 62.6 °F 53.6 °F 72% 29.87 in 10.0 mi North 8.1 mph - 0.01 in   Mostly Cloudy
3:15 PM 62.6 °F 51.8 °F 68% 29.89 in 10.0 mi NNW 6.9 mph - 0.01 in   Overcast
3:35 PM 62.6 °F 51.8 °F 68% 29.89 in 10.0 mi NNW 10.4 mph - 0.01 in   Overcast
3:55 PM 62.6 °F 51.8 °F 68% 29.89 in 10.0 mi NNW 8.1 mph - 0.01 in   Overcast
4:15 PM 62.6 °F 51.8 °F 68% 29.90 in 10.0 mi NNW 8.1 mph - N/A   Overcast
4:35 PM 62.6 °F 51.8 °F 68% 29.90 in 10.0 mi North 6.9 mph - N/A   Overcast
4:55 PM 62.6 °F 51.8 °F 68% 29.90 in 10.0 mi NNW 4.6 mph - N/A   Overcast
5:15 PM 60.8 °F 51.8 °F 72% 29.91 in 10.0 mi Calm Calm - N/A   Overcast
5:35 PM 60.8 °F 51.8 °F 72% 29.91 in 10.0 mi Calm Calm - N/A   Overcast
5:55 PM 60.8 °F 51.8 °F 72% 29.91 in 10.0 mi Calm Calm - N/A   Overcast
6:15 PM 60.8 °F 53.6 °F 77% 29.91 in 10.0 mi Calm Calm - N/A   Overcast
6:35 PM 59.0 °F 53.6 °F 82% 29.91 in 10.0 mi Calm Calm - N/A   Overcast
6:55 PM 57.2 °F 53.6 °F 88% 29.93 in 10.0 mi Calm Calm - N/A   Scattered Clouds
7:15 PM 57.2 °F 53.6 °F 88% 29.94 in 10.0 mi Calm Calm - N/A   Mostly Cloudy
7:35 PM 57.2 °F 53.6 °F 88% 29.95 in 10.0 mi Calm Calm - N/A   Overcast
7:55 PM 57.2 °F 53.6 °F 88% 29.95 in 10.0 mi Calm Calm - N/A   Overcast
8:15 PM 59.0 °F 51.8 °F 77% 29.96 in 10.0 mi Calm Calm - N/A   Overcast
8:35 PM 59.0 °F 51.8 °F 77% 29.97 in 10.0 mi Calm Calm - N/A   Overcast
8:55 PM 57.2 °F 50.0 °F 77% 29.97 in 10.0 mi Calm Calm - N/A   Scattered Clouds
9:15 PM 57.2 °F 50.0 °F 77% 29.97 in 10.0 mi NNE 3.5 mph - N/A   Scattered Clouds
9:35 PM 55.4 °F 50.0 °F 82% 29.98 in 10.0 mi North 3.5 mph - N/A   Mostly Cloudy
9:55 PM 55.4 °F 50.0 °F 82% 29.98 in 10.0 mi North 3.5 mph - N/A   Mostly Cloudy
10:15 PM 55.4 °F 48.2 °F 77% 29.98 in 10.0 mi North 3.5 mph - N/A   Scattered Clouds
10:35 PM 55.4 °F 48.2 °F 77% 29.98 in 10.0 mi NNE 4.6 mph - N/A   Clear
10:55 PM 55.4 °F 48.2 °F 77% 29.98 in 10.0 mi NNE 4.6 mph - N/A   Clear
11:15 PM 55.4 °F 46.4 °F 72% 29.97 in 10.0 mi NNE 4.6 mph - N/A   Clear
11:35 PM 53.6 °F 46.4 °F 77% 29.97 in 10.0 mi NNE 5.8 mph - N/A   Clear
11:55 PM 53.6 °F 46.4 °F 77% 29.98 in 10.0 mi North 3.5 mph - N/A   Clear